Weather History for Topeka Forbes, KS

Change the Weather History Date:

Monday, July 15, 2013

  Actual Average Record
Temperature  
Mean Temperature 77 °F -  
Max Temperature 91 °F 88 °F 108 °F (1980)
Min Temperature 64 °F 67 °F 52 °F (1967)
Cooling Degree Days 12    
Growing Degree Days 27 (Base 50)    
Moisture  
Dew Point 62 °F    
Average Humidity 59    
Maximum Humidity 87    
Minimum Humidity 37    
Precipitation  
Precipitation 0.00 in - - ()
Sea Level Pressure  
Sea Level Pressure 30.12 in    
Wind  
Wind Speed 6 mph (ESE)    
Max Wind Speed 16 mph    
Max Gust Speed 23 mph    
Visibility 10 miles    
Events      
Averages and records for this station are not official NWS values.
T = Trace of Precipitation, MM = Missing Value Source: NWS Daily Summary

Daily Weather History Graph

Daily Weather History Graph

Search for Another Location

Airport:

Trip Planner

Search our weather history database for the weather conditions in past years. The results will help you decide how hot, cold, wet, or windy it might be!

Date:

Astronomy

Jul. 15, 2013 Rise Set
Actual Time 6:09 AM CDT 8:47 PM CDT
Civil Twilight 5:38 AM CDT 9:18 PM CDT
Nautical Twilight 4:59 AM CDT 9:57 PM CDT
Astronomical Twilight 4:16 AM CDT 10:40 PM CDT
Moon 1:25 PM CDT (7/15) 12:04 AM CDT (7/15)
Length of Visible Light 15h 39m
Length of Day
14h 37m
Waxing Crescent, 45% of the Moon is Illuminated
Jul 15
Waxing Crescent
Jul 15
First Quarter
Jul 22
Full
Jul 29
Last Quarter
Aug 6
New

Hourly Weather History & Observations

Time (CDT) Temp. Heat Index Dew Point Humidity Pressure Visibility Wind Dir Wind Speed Gust Speed Precip Events Conditions
12:53 AM 72.0 °F - 57.0 °F 59% 30.10 in 10.0 mi ENE 4.6 mph - N/A   Clear
1:53 AM 71.1 °F - 57.9 °F 63% 30.09 in 10.0 mi ENE 4.6 mph - N/A   Clear
2:53 AM 71.1 °F - 60.1 °F 68% 30.09 in 10.0 mi East 5.8 mph - N/A   Partly Cloudy
3:53 AM 69.1 °F - 60.1 °F 73% 30.09 in 10.0 mi NE 4.6 mph - N/A   Clear
4:53 AM 66.9 °F - 61.0 °F 81% 30.10 in 10.0 mi Calm Calm - N/A   Clear
5:53 AM 64.0 °F - 60.1 °F 87% 30.12 in 10.0 mi East 3.5 mph - N/A   Clear
6:53 AM 66.9 °F - 62.1 °F 84% 30.13 in 8.0 mi Calm Calm - N/A   Clear
7:53 AM 72.0 °F - 64.9 °F 78% 30.14 in 10.0 mi ESE 6.9 mph - N/A   Clear
8:53 AM 77.0 °F - 64.0 °F 64% 30.16 in 10.0 mi ESE 8.1 mph - N/A   Clear
9:53 AM 81.0 °F 82.5 °F 64.0 °F 56% 30.15 in 10.0 mi SSE 6.9 mph - N/A   Clear
10:53 AM 84.0 °F 85.8 °F 64.9 °F 53% 30.16 in 10.0 mi East 6.9 mph - N/A   Clear
11:53 AM 86.0 °F 87.3 °F 64.0 °F 48% 30.14 in 10.0 mi ESE 9.2 mph - N/A   Partly Cloudy
12:53 PM 88.0 °F 88.4 °F 62.1 °F 42% 30.14 in 10.0 mi ESE 10.4 mph 17.3 mph N/A   Mostly Cloudy
1:53 PM 90.0 °F 90.0 °F 61.0 °F 38% 30.12 in 10.0 mi ESE 9.2 mph 18.4 mph N/A   Clear
2:53 PM 90.0 °F 89.7 °F 60.1 °F 37% 30.10 in 10.0 mi East 12.7 mph 23.0 mph N/A   Clear
3:53 PM 89.1 °F 89.3 °F 62.1 °F 40% 30.09 in 10.0 mi SE 10.4 mph - N/A   Scattered Clouds
4:53 PM 90.0 °F 90.3 °F 62.1 °F 39% 30.08 in 10.0 mi East 11.5 mph 18.4 mph N/A   Partly Cloudy
5:53 PM 89.1 °F 89.3 °F 62.1 °F 40% 30.07 in 10.0 mi ESE 11.5 mph - N/A   Scattered Clouds
6:43 PM 82.4 °F 83.9 °F 64.4 °F 54% 30.12 in 10.0 mi SSW 16.1 mph - N/A   Mostly Cloudy
6:53 PM 82.9 °F 84.4 °F 64.0 °F 53% 30.09 in 10.0 mi SW 13.8 mph - N/A   Mostly Cloudy
7:53 PM 79.0 °F - 63.0 °F 58% 30.10 in 10.0 mi SSW 4.6 mph - N/A   Scattered Clouds
8:53 PM 79.0 °F - 63.0 °F 58% 30.11 in 10.0 mi Calm Calm - N/A   Mostly Cloudy
9:53 PM 78.1 °F - 64.0 °F 62% 30.13 in 10.0 mi South 4.6 mph - N/A   Overcast
10:53 PM 77.0 °F - 64.9 °F 66% 30.15 in 10.0 mi ESE 3.5 mph - N/A   Overcast
11:53 PM 73.9 °F - 66.0 °F 76% 30.16 in 10.0 mi Calm Calm - N/A   Partly Cloudy